This is the latest recevied weather packets stored in our database for station/object W4MJZ-1. If no packets are shown the sender has not sent any weather packets the latest 1 day(s).
| Time | Temp. | Humidity | Pressure | Rain* | Wind** | Luminosity | Snow |
|---|---|---|---|---|---|---|---|
| 1778020216 | 24.44° C | 31% | 1017.3 hPa | 0 mm | 3.58 m/s, 265° | - | - |
| 1778020039 | 24.44° C | 31% | 1017.3 hPa | 0 mm | 3.58 m/s, 265° | - | - |
| 1778019849 | 24.44° C | 30% | 1017.7 hPa | 0 mm | 3.58 m/s, 293° | - | - |
| 1778019739 | 24.44° C | 30% | 1017.7 hPa | 0 mm | 3.58 m/s, 293° | - | - |
| 1778019600 | 23.89° C | 30% | 1017.7 hPa | 0 mm | 3.58 m/s, 299° | - | - |
| 1778019438 | 23.89° C | 30% | 1017.7 hPa | 0 mm | 3.58 m/s, 299° | - | - |
| 1778019256 | 23.89° C | 30% | 1017.7 hPa | 0 mm | 4.02 m/s, 258° | - | - |
| 1778019139 | 23.89° C | 30% | 1017.7 hPa | 0 mm | 4.02 m/s, 258° | - | - |
| 1778018956 | 23.33° C | 30% | 1017.7 hPa | 0 mm | 4.02 m/s, 244° | - | - |
| 1778018839 | 23.33° C | 30% | 1017.7 hPa | 0 mm | 4.02 m/s, 244° | - | - |
| 1778018604 | 23.89° C | 29% | 1018.1 hPa | 0 mm | 4.02 m/s, 241° | - | - |
| 1778018538 | 23.89° C | 29% | 1018.1 hPa | 0 mm | 4.02 m/s, 241° | - | - |
| 1778018242 | 23.33° C | 31% | 1017.7 hPa | 0 mm | 3.13 m/s, 226° | - | - |
| 1778017938 | 24.44° C | 32% | 1017.7 hPa | 0 mm | 2.68 m/s, 231° | - | - |
| 1778017638 | 24.44° C | 32% | 1017.7 hPa | 0 mm | 3.58 m/s, 249° | - | - |
| 1778017405 | 24.44° C | 30% | 1018.1 hPa | 0 mm | 4.47 m/s, 251° | - | - |
| 1778017339 | 24.44° C | 30% | 1018.1 hPa | 0 mm | 4.47 m/s, 251° | - | - |
| 1778017103 | 24.44° C | 31% | 1018.1 hPa | 0 mm | 5.36 m/s, 238° | - | - |
| 1778017038 | 24.44° C | 31% | 1018.1 hPa | 0 mm | 5.36 m/s, 238° | - | - |
| 1778016739 | 24.44° C | 31% | 1018.1 hPa | 0 mm | 5.36 m/s, 249° | - | - |
| 1778016438 | 24.44° C | 31% | 1017.7 hPa | 0 mm | 4.92 m/s, 256° | - | - |
| 1778016139 | 23.89° C | 32% | 1018.1 hPa | 3.81 mm | 4.47 m/s, 234° | - | - |
| 1778015841 | 25° C | 30% | 1018.5 hPa | 3.81 mm | 3.58 m/s, 219° | - | - |
| 1778015538 | 23.89° C | 31% | 1018.5 hPa | 3.81 mm | 3.13 m/s, 128° | - | - |
| 1778015238 | 24.44° C | 32% | 1018.5 hPa | 3.81 mm | 3.58 m/s, 100° | - | - |
* Rain latest hour (hover to see other rain measurements)
** Current wind speed in m/s (hover to see current wind gust speed)